This demonstration page uses our WeatherBlox Daily Observations layout. Learn more.

Left ArrowRight Arrow

Hourly Observations for October 16, 2016

Temp ( °F °C ) Dew Point ( °F °C ) Humidity (%) Winds ( mph kmh ) Pressure ( in mb ) Visibility ( mi km ) Precip ( " mm )
12:51 am 00:51 Clear 57 13.9 43 6.1 60 60 E 6 9 29.90 1013 10 16 0.00 0.00
1:51 am 01:51 Clear 55 12.8 43 6.1 64 64 SE 5 7 29.91 1013 10 16 0.00 0.00
2:51 am 02:51 Clear 54 12.2 41 5 62 62 Calm 29.90 1013 10 16 0.00 0.00
3:51 am 03:51 Clear 53 11.7 42 5.6 66 66 NNW 3 6 29.91 1013 10 16 0.00 0.00
4:51 am 04:51 Clear 51 10.6 42 5.6 71 71 E 3 6 29.91 1013 10 16 0.00 0.00
5:51 am 05:51 Clear 50 10 40 4.4 68 68 Calm 29.96 1014 10 16 0.00 0.00
6:51 am 06:51 Sunny 54 12.2 38 3.3 55 55 SSE 7 11 29.97 1015 10 16 0.00 0.00
7:51 am 07:51 Sunny 60 15.6 38 3.3 44 44 SSE 3 6 29.98 1015 10 16 0.00 0.00
8:51 am 08:51 Sunny 68 20 39 3.9 35 35 SE 5 7 29.97 1015 10 16 0.00 0.00
9:51 am 09:51 Sunny 75 23.9 36 2.2 24 24 SSE 6 9 29.96 1015 10 16 0.00 0.00
10:51 am 10:51 Sunny 79 26.1 36 2.2 21 21 VRB 3 6 29.94 1014 10 16 0.00 0.00
11:51 am 11:51 Sunny 82 27.8 37 2.8 20 20 VRB 3 6 29.92 1013 10 16 0.00 0.00
12:51 pm 12:51 Sunny 85 29.4 37 2.8 18 18 W 8 13 29.88 1012 10 16 0.00 0.00
1:51 pm 13:51 Sunny 86 30 38 3.3 18 18 W 8 13 29.84 1011 10 16 0.00 0.00
2:51 pm 14:51 Sunny 86 30 37 2.8 18 18 VRB 7 11 29.82 1010 10 16 0.00 0.00
3:51 pm 15:51 Sunny 87 30.6 37 2.8 17 17 W 6 9 29.80 1009 10 16 0.00 0.00
4:51 pm 16:51 Sunny 82 27.8 42 5.6 24 24 W 6 9 29.80 1009 10 16 0.00 0.00
5:51 pm 17:51 Clear 77 25 47 8.3 35 35 W 3 6 29.83 1010 10 16 0.00 0.00
6:51 pm 18:51 Clear 69 20.6 47 8.3 45 45 undefined N/A 29.85 1011 10 16 0.00 0.03
7:51 pm 19:51 Clear 69 20.6 42 5.6 38 38 N 3 6 29.85 1011 10 16 0.00 0.00
8:51 pm 20:51 Clear 70 21.1 40 4.4 34 34 VRB 7 11 29.84 1010 10 16 0.00 0.00
9:51 pm 21:51 Clear 62 16.7 43 6.1 50 50 Calm 29.84 1011 10 16 0.00 0.00
10:51 pm 22:51 Clear 60 15.6 45 7.2 58 58 SSE 5 7 29.85 1011 10 16 0.00 0.00
11:51 pm 23:51 Clear 58 14.4 43 6.1 58 58 ENE 3 6 29.85 1011 10 16 0.00 0.00

Powered by AerisWeather